Time,TemperatureF,DewpointF,PressureIn,WindDirection,WindDirectionDegrees,WindSpeedMPH,WindSpeedGustMPH,Humidity,HourlyPrecipIn,Conditions,Clouds,dailyrainin,SoftwareType,DateUTC
2013-04-11 00:12:00,35.5,34.0,29.95,NE,55,8.0,13.0,95,0.09,,,0.02,weatherlink.com 1.10,2013-04-11 05:12:00,
2013-04-11 00:27:00,35.4,34.0,29.97,NE,42,6.0,12.0,95,0.10,,,0.05,weatherlink.com 1.10,2013-04-11 05:27:00,
2013-04-11 00:43:00,35.3,34.0,29.97,NNE,32,4.0,13.0,95,0.11,,,0.08,weatherlink.com 1.10,2013-04-11 05:43:00,
2013-04-11 00:58:00,35.3,34.0,29.96,ENE,62,4.0,11.0,95,0.11,,,0.10,weatherlink.com 1.10,2013-04-11 05:58:00,
2013-04-11 01:13:00,35.1,34.0,29.96,North,5,6.0,14.0,95,0.12,,,0.14,weatherlink.com 1.10,2013-04-11 06:13:00,
2013-04-11 01:28:00,35.0,34.0,29.93,NE,36,5.0,13.0,95,0.13,,,0.18,weatherlink.com 1.10,2013-04-11 06:28:00,
2013-04-11 01:43:00,34.8,34.0,29.91,NNE,30,6.0,13.0,95,0.11,,,0.19,weatherlink.com 1.10,2013-04-11 06:43:00,
2013-04-11 01:58:00,34.3,33.0,29.70,NNE,26,25.0,26.0,95,0.10,,,0.20,weatherlink.com 1.10,2013-04-11 06:58:00,
2013-04-11 02:13:00,34.4,33.0,29.82,ENE,78,8.0,18.0,95,0.06,,,0.20,weatherlink.com 1.10,2013-04-11 07:13:00,
2013-04-11 02:28:00,34.3,33.0,29.85,NE,47,13.0,16.0,95,0.02,,,0.20,weatherlink.com 1.10,2013-04-11 07:28:00,
2013-04-11 02:43:00,34.3,33.0,29.87,NNE,32,2.0,14.0,94,0.01,,,0.20,weatherlink.com 1.10,2013-04-11 07:43:00,
2013-04-11 02:58:00,34.2,33.0,29.85,ENE,67,5.0,10.0,94,0.00,,,0.20,weatherlink.com 1.10,2013-04-11 07:58:00,
2013-04-11 03:13:00,34.1,32.0,29.86,ENE,57,1.0,13.0,93,0.00,,,0.20,weatherlink.com 1.10,2013-04-11 08:13:00,
2013-04-11 03:28:00,34.0,32.0,29.86,NE,38,8.0,16.0,93,0.00,,,0.20,weatherlink.com 1.10,2013-04-11 08:28:00,
2013-04-11 03:43:00,33.9,32.0,29.85,East,99,2.0,10.0,93,0.00,,,0.20,weatherlink.com 1.10,2013-04-11 08:43:00,
2013-04-11 03:58:00,33.9,32.0,29.85,ENE,78,5.0,13.0,93,0.00,,,0.20,weatherlink.com 1.10,2013-04-11 08:58:00,
2013-04-11 04:13:00,33.9,32.0,29.84,ENE,62,4.0,17.0,93,0.00,,,0.20,weatherlink.com 1.10,2013-04-11 09:13:00,
2013-04-11 04:28:00,33.9,32.0,29.85,East,94,3.0,13.0,93,0.00,,,0.20,weatherlink.com 1.10,2013-04-11 09:28:00,
2013-04-11 04:43:00,33.9,32.0,29.83,NE,43,2.0,14.0,93,0.00,,,0.20,weatherlink.com 1.10,2013-04-11 09:43:00,
2013-04-11 04:58:00,33.9,32.0,29.81,NE,56,7.0,13.0,93,0.00,,,0.20,weatherlink.com 1.10,2013-04-11 09:58:00,
2013-04-11 05:13:00,33.9,32.0,29.81,NE,37,5.0,15.0,94,0.00,,,0.20,weatherlink.com 1.10,2013-04-11 10:13:00,
2013-04-11 05:28:00,33.8,32.0,29.81,ENE,61,5.0,12.0,94,0.00,,,0.20,weatherlink.com 1.10,2013-04-11 10:28:00,
2013-04-11 05:43:00,33.8,33.0,29.80,NE,36,6.0,13.0,95,0.00,,,0.20,weatherlink.com 1.10,2013-04-11 10:43:00,
2013-04-11 05:58:00,33.8,33.0,29.82,NE,40,2.0,13.0,95,0.00,,,0.20,weatherlink.com 1.10,2013-04-11 10:58:00,
2013-04-11 06:13:00,33.8,33.0,29.81,ENE,76,9.0,13.0,96,0.00,,,0.20,weatherlink.com 1.10,2013-04-11 11:13:00,
2013-04-11 06:28:00,33.8,34.0,29.80,NE,35,5.0,11.0,100,0.00,,,0.20,weatherlink.com 1.10,2013-04-11 11:28:00,
2013-04-11 06:43:00,33.9,33.0,29.81,NE,49,2.0,12.0,96,0.01,,,0.21,weatherlink.com 1.10,2013-04-11 11:43:00,
2013-04-11 06:58:00,34.1,33.0,29.81,NE,37,8.0,18.0,96,0.02,,,0.22,weatherlink.com 1.10,2013-04-11 11:58:00,
2013-04-11 07:13:00,34.2,33.0,29.80,NNE,29,6.0,13.0,96,0.02,,,0.22,weatherlink.com 1.10,2013-04-11 12:13:00,
2013-04-11 07:28:00,34.4,33.0,29.79,NE,53,4.0,14.0,96,0.03,,,0.23,weatherlink.com 1.10,2013-04-11 12:28:00,
2013-04-11 07:43:00,34.6,34.0,29.79,ENE,59,5.0,15.0,96,0.03,,,0.24,weatherlink.com 1.10,2013-04-11 12:43:00,
2013-04-11 07:58:00,34.7,34.0,29.79,ENE,61,11.0,17.0,96,0.02,,,0.24,weatherlink.com 1.10,2013-04-11 12:58:00,
2013-04-11 08:13:00,34.8,34.0,29.79,NE,54,5.0,13.0,96,0.02,,,0.24,weatherlink.com 1.10,2013-04-11 13:13:00,
2013-04-11 08:28:00,34.9,34.0,29.80,North,355,6.0,14.0,96,0.02,,,0.25,weatherlink.com 1.10,2013-04-11 13:28:00,
2013-04-11 08:43:00,34.9,34.0,29.78,South,177,6.0,16.0,96,0.01,,,0.25,weatherlink.com 1.10,2013-04-11 13:43:00,
2013-04-11 08:58:00,35.0,34.0,29.77,ENE,60,10.0,14.0,96,0.01,,,0.25,weatherlink.com 1.10,2013-04-11 13:58:00,
2013-04-11 09:13:00,35.1,34.0,29.76,NNE,24,7.0,16.0,96,0.02,,,0.26,weatherlink.com 1.10,2013-04-11 14:13:00,
2013-04-11 09:28:00,35.1,34.0,29.77,NE,55,8.0,10.0,96,0.01,,,0.26,weatherlink.com 1.10,2013-04-11 14:28:00,
2013-04-11 09:43:00,35.1,34.0,29.77,SW,227,2.0,12.0,96,0.02,,,0.27,weatherlink.com 1.10,2013-04-11 14:43:00,
2013-04-11 09:58:00,35.2,34.0,29.76,ENE,71,10.0,13.0,96,0.04,,,0.29,weatherlink.com 1.10,2013-04-11 14:58:00,
2013-04-11 10:13:00,35.3,34.0,29.75,ENE,74,2.0,16.0,96,0.03,,,0.29,weatherlink.com 1.10,2013-04-11 15:13:00,
2013-04-11 10:28:00,35.5,35.0,29.75,ENE,61,5.0,14.0,96,0.03,,,0.29,weatherlink.com 1.10,2013-04-11 15:28:00,
2013-04-11 10:43:00,35.7,35.0,29.74,NE,53,8.0,12.0,96,0.03,,,0.30,weatherlink.com 1.10,2013-04-11 15:43:00,
2013-04-11 10:58:00,35.9,35.0,29.75,SE,144,12.0,16.0,96,0.01,,,0.30,weatherlink.com 1.10,2013-04-11 15:58:00,
2013-04-11 11:13:00,36.0,35.0,29.74,ENE,61,7.0,15.0,96,0.01,,,0.30,weatherlink.com 1.10,2013-04-11 16:13:00,
2013-04-11 11:28:00,36.1,35.0,29.75,SSE,151,3.0,10.0,96,0.01,,,0.30,weatherlink.com 1.10,2013-04-11 16:28:00,
2013-04-11 11:43:00,36.1,35.0,29.74,ENE,59,4.0,11.0,96,0.00,,,0.30,weatherlink.com 1.10,2013-04-11 16:43:00,
2013-04-11 11:58:00,36.1,35.0,29.74,North,11,7.0,14.0,96,0.00,,,0.30,weatherlink.com 1.10,2013-04-11 16:58:00,
2013-04-11 12:13:00,36.1,35.0,29.74,ENE,58,4.0,13.0,96,0.01,,,0.31,weatherlink.com 1.10,2013-04-11 17:13:00,
2013-04-11 12:28:00,36.1,35.0,29.73,NE,46,6.0,13.0,96,0.01,,,0.31,weatherlink.com 1.10,2013-04-11 17:28:00,
2013-04-11 12:43:00,36.2,35.0,29.72,ENE,78,7.0,10.0,96,0.01,,,0.31,weatherlink.com 1.10,2013-04-11 17:43:00,
2013-04-11 12:58:00,36.1,35.0,29.72,South,184,6.0,13.0,96,0.01,,,0.31,weatherlink.com 1.10,2013-04-11 17:58:00,
2013-04-11 13:13:00,36.1,35.0,29.70,ENE,69,1.0,12.0,96,0.00,,,0.31,weatherlink.com 1.10,2013-04-11 18:13:00,
2013-04-11 13:28:00,36.2,35.0,29.71,SSE,154,5.0,11.0,96,0.00,,,0.31,weatherlink.com 1.10,2013-04-11 18:28:00,
2013-04-11 13:43:00,36.2,35.0,29.70,NE,51,4.0,13.0,96,0.00,,,0.31,weatherlink.com 1.10,2013-04-11 18:43:00,
2013-04-11 13:58:00,36.1,35.0,29.69,ESE,110,3.0,11.0,96,0.00,,,0.31,weatherlink.com 1.10,2013-04-11 18:58:00,
2013-04-11 14:13:00,36.1,35.0,29.70,East,82,3.0,12.0,96,0.00,,,0.31,weatherlink.com 1.10,2013-04-11 19:13:00,
2013-04-11 14:28:00,36.1,35.0,29.70,East,86,6.0,14.0,96,0.01,,,0.32,weatherlink.com 1.10,2013-04-11 19:28:00,
2013-04-11 14:43:00,36.1,35.0,29.70,ENE,63,5.0,14.0,96,0.01,,,0.32,weatherlink.com 1.10,2013-04-11 19:43:00,
2013-04-11 14:58:00,36.2,35.0,29.69,ENE,71,7.0,11.0,96,0.01,,,0.32,weatherlink.com 1.10,2013-04-11 19:58:00,
2013-04-11 15:13:00,36.1,35.0,29.68,NE,46,3.0,11.0,96,0.01,,,0.32,weatherlink.com 1.10,2013-04-11 20:13:00,
2013-04-11 15:28:00,36.2,35.0,29.67,NE,52,5.0,15.0,96,0.00,,,0.32,weatherlink.com 1.10,2013-04-11 20:28:00,
2013-04-11 15:43:00,36.0,35.0,29.67,ENE,61,2.0,12.0,96,0.00,,,0.32,weatherlink.com 1.10,2013-04-11 20:43:00,
2013-04-11 15:59:00,35.9,35.0,29.68,East,89,7.0,10.0,96,0.00,,,0.32,weatherlink.com 1.10,2013-04-11 20:59:00,
2013-04-11 16:13:00,35.8,35.0,29.68,East,79,3.0,10.0,96,0.00,,,0.32,weatherlink.com 1.10,2013-04-11 21:13:00,
2013-04-11 16:28:00,35.9,35.0,29.68,NE,41,4.0,8.0,96,0.01,,,0.33,weatherlink.com 1.10,2013-04-11 21:28:00,
2013-04-11 16:43:00,35.9,35.0,29.68,NE,53,4.0,8.0,96,0.01,,,0.33,weatherlink.com 1.10,2013-04-11 21:43:00,
2013-04-11 16:59:00,35.7,35.0,29.68,ENE,67,2.0,10.0,96,0.01,,,0.33,weatherlink.com 1.10,2013-04-11 21:59:00,
2013-04-11 17:14:00,35.7,35.0,29.67,North,355,4.0,12.0,96,0.01,,,0.33,weatherlink.com 1.10,2013-04-11 22:14:00,
2013-04-11 17:29:00,35.6,35.0,29.66,NE,42,4.0,12.0,96,0.00,,,0.33,weatherlink.com 1.10,2013-04-11 22:29:00,
2013-04-11 17:44:00,35.5,35.0,29.67,ENE,65,4.0,9.0,96,0.00,,,0.33,weatherlink.com 1.10,2013-04-11 22:44:00,
2013-04-11 17:59:00,35.5,35.0,29.70,ENE,59,4.0,10.0,96,0.00,,,0.33,weatherlink.com 1.10,2013-04-11 22:59:00,
2013-04-11 18:15:00,35.3,34.0,29.69,NNE,31,2.0,8.0,96,0.00,,,0.33,weatherlink.com 1.10,2013-04-11 23:15:00,
2013-04-11 18:29:00,35.1,34.0,29.68,NNE,17,4.0,10.0,96,0.00,,,0.33,weatherlink.com 1.10,2013-04-11 23:29:00,
2013-04-11 18:44:00,35.0,34.0,29.67,NNE,20,4.0,11.0,96,0.00,,,0.33,weatherlink.com 1.10,2013-04-11 23:44:00,
2013-04-11 18:59:00,34.9,34.0,29.65,NNE,20,12.0,12.0,96,0.00,,,0.33,weatherlink.com 1.10,2013-04-11 23:59:00,
2013-04-11 19:14:00,34.8,34.0,29.64,ENE,60,7.0,11.0,97,0.00,,,0.33,weatherlink.com 1.10,2013-04-12 00:14:00,
2013-04-11 19:29:00,34.6,34.0,29.62,NNE,26,4.0,13.0,97,0.00,,,0.33,weatherlink.com 1.10,2013-04-12 00:29:00,
2013-04-11 19:44:00,34.6,34.0,29.63,NE,55,7.0,11.0,96,0.00,,,0.33,weatherlink.com 1.10,2013-04-12 00:44:00,
2013-04-11 19:59:00,34.5,34.0,29.63,ENE,78,4.0,14.0,96,0.01,,,0.34,weatherlink.com 1.10,2013-04-12 00:59:00,
2013-04-11 20:14:00,34.6,34.0,29.64,ENE,71,4.0,12.0,97,0.01,,,0.34,weatherlink.com 1.10,2013-04-12 01:14:00,
2013-04-11 20:29:00,34.5,34.0,29.64,NE,56,8.0,9.0,97,0.01,,,0.34,weatherlink.com 1.10,2013-04-12 01:29:00,
2013-04-11 20:44:00,34.6,34.0,29.64,NE,53,4.0,9.0,97,0.01,,,0.34,weatherlink.com 1.10,2013-04-12 01:44:00,
2013-04-11 20:59:00,34.6,34.0,29.63,NE,35,2.0,7.0,97,0.00,,,0.34,weatherlink.com 1.10,2013-04-12 01:59:00,
2013-04-11 21:14:00,34.7,34.0,29.63,East,80,7.0,13.0,97,0.00,,,0.34,weatherlink.com 1.10,2013-04-12 02:14:00,
2013-04-11 21:29:00,34.7,34.0,29.63,ENE,71,1.0,9.0,97,0.00,,,0.34,weatherlink.com 1.10,2013-04-12 02:29:00,
2013-04-11 21:44:00,34.7,34.0,29.63,NE,48,4.0,11.0,97,0.00,,,0.34,weatherlink.com 1.10,2013-04-12 02:44:00,
2013-04-11 21:59:00,34.7,34.0,29.62,NE,56,6.0,10.0,97,0.00,,,0.34,weatherlink.com 1.10,2013-04-12 02:59:00,
2013-04-11 22:14:00,34.8,34.0,29.62,East,79,2.0,8.0,97,0.00,,,0.34,weatherlink.com 1.10,2013-04-12 03:14:00,
2013-04-11 22:29:00,34.8,34.0,29.61,ENE,72,1.0,7.0,97,0.01,,,0.35,weatherlink.com 1.10,2013-04-12 03:29:00,
2013-04-11 22:44:00,34.8,34.0,29.62,ESE,123,2.0,10.0,97,0.01,,,0.35,weatherlink.com 1.10,2013-04-12 03:44:00,
2013-04-11 22:59:00,34.9,34.0,29.62,NW,317,6.0,6.0,97,0.01,,,0.35,weatherlink.com 1.10,2013-04-12 03:59:00,
2013-04-11 23:14:00,35.0,34.0,29.62,NNE,30,1.0,7.0,97,0.01,,,0.35,weatherlink.com 1.10,2013-04-12 04:14:00,
2013-04-11 23:30:00,35.0,34.0,29.61,East,85,3.0,7.0,97,0.00,,,0.35,weatherlink.com 1.10,2013-04-12 04:30:00,
2013-04-11 23:45:00,35.0,34.0,29.61,East,79,5.0,7.0,97,0.01,,,0.36,weatherlink.com 1.10,2013-04-12 04:45:00,
2013-04-11 23:59:00,34.9,34.0,29.61,NNE,32,5.0,8.0,97,0.01,,,0.36,weatherlink.com 1.10,2013-04-12 04:59:00,